Tracking 35334 objects as of 13-Sep-2026
HD Live streaming from Space Station
objects crossing your sky now

THOR ABLESTAR DEB

Track THOR ABLESTAR DEB now!
10-day predictions


NORAD ID: 119
Int'l Code: 1961-015D
Launch date: June 29, 1961
Source: United States (US)
Launch site: AIR FORCE EASTERN TEST RANGE (AFETR)

Note: This is SATELLITE DEBRIS
Your satellite tracking list
Your tracking list is empty




NASA's NSSDC Master Catalog

Two Line Element Set (TLE):
1 00119U 61015D   26255.95738419  .00000351  00000-0  16770-3 0  9993
2 00119  66.7266 160.1669 0102578 199.7499 159.9615 14.27423175370840
Source of the keplerian elements: AFSPC